TimeCST,TemperatureF,Dew PointF,Humidity,Sea Level PressureIn,VisibilityMPH,Wind Direction,Wind SpeedMPH,Gust SpeedMPH,PrecipitationIn,Events,Conditions,WindDirDegrees,DateUTC
12:52 AM,32.0,26.1,79,29.76,10.0,South,4.6,-,N/A,,Clear,170,2011-11-15 06:52:00
1:52 AM,32.0,26.1,79,29.75,10.0,SSE,6.9,-,N/A,,Clear,150,2011-11-15 07:52:00
3:52 AM,34.0,26.1,73,29.75,10.0,South,5.8,-,N/A,,Clear,180,2011-11-15 09:52:00
4:52 AM,33.1,27.0,78,29.73,10.0,SSE,9.2,-,N/A,,Clear,160,2011-11-15 10:52:00
5:52 AM,33.1,26.1,75,29.74,10.0,South,8.1,-,N/A,,Clear,170,2011-11-15 11:52:00
7:52 AM,44.1,32.0,63,29.73,10.0,South,16.1,-,N/A,,Partly Cloudy,170,2011-11-15 13:52:00
8:52 AM,50.0,33.1,52,29.74,10.0,SSW,12.7,23.0,N/A,,Clear,210,2011-11-15 14:52:00
9:52 AM,53.1,34.0,48,29.73,10.0,South,16.1,24.2,N/A,,Clear,190,2011-11-15 15:52:00
10:52 AM,57.9,33.1,39,29.73,10.0,SSW,19.6,25.3,N/A,,Clear,210,2011-11-15 16:52:00
11:52 AM,59.0,33.1,38,29.72,10.0,SW,13.8,-,N/A,,Clear,230,2011-11-15 17:52:00
12:52 PM,61.0,30.9,32,29.70,9.0,West,16.1,-,N/A,,Clear,260,2011-11-15 18:52:00
1:52 PM,62.1,30.9,31,29.71,10.0,West,13.8,-,N/A,,Clear,260,2011-11-15 19:52:00
3:52 PM,57.9,32.0,37,29.75,10.0,NW,9.2,-,N/A,,Unknown,310,2011-11-15 21:52:00
4:52 PM,48.0,32.0,54,29.77,10.0,WNW,9.2,-,N/A,,Clear,300,2011-11-15 22:52:00
5:52 PM,46.0,30.9,56,29.81,10.0,WNW,6.9,-,N/A,,Clear,300,2011-11-15 23:52:00
6:52 PM,45.0,28.9,53,29.84,10.0,NW,9.2,-,N/A,,Clear,310,2011-11-16 00:52:00
7:52 PM,36.0,26.1,67,29.86,10.0,WNW,6.9,-,N/A,,Clear,290,2011-11-16 01:52:00
8:52 PM,41.0,26.1,55,29.88,10.0,NW,9.2,-,N/A,,Clear,310,2011-11-16 02:52:00
9:52 PM,42.1,25.0,51,29.92,10.0,NNW,19.6,25.3,N/A,,Clear,330,2011-11-16 03:52:00
10:52 PM,39.0,23.0,53,29.96,10.0,NW,15.0,-,N/A,,Clear,320,2011-11-16 04:52:00
11:52 PM,36.0,21.0,55,29.99,10.0,NW,9.2,-,N/A,,Clear,320,2011-11-16 05:52:00